This is the latest recevied weather packets stored in our database for station/object W4TJP. If no packets are shown the sender has not sent any weather packets the latest 10 day(s).
| Time | Temp. | Humidity | Pressure | Rain* | Wind** | Luminosity | Snow |
|---|---|---|---|---|---|---|---|
| 1777577307 | 16.67° C | 50% | 1015.1 hPa | 0 mm | - | 442 W/m² | - |
| 1777577002 | 15.56° C | 52% | 1015.1 hPa | 0 mm | - | 456 W/m² | - |
| 1777576700 | 16.11° C | 54% | 1015.1 hPa | 0 mm | - | 436 W/m² | - |
| 1777576398 | 16.11° C | 54% | 1014.8 hPa | 0 mm | - | 432 W/m² | - |
| 1777576095 | 15.56° C | 54% | 1014.9 hPa | 0 mm | - | 422 W/m² | - |
| 1777575791 | 15.56° C | 51% | 1015.1 hPa | 0 mm | - | 380 W/m² | - |
| 1777575488 | 16.11° C | 51% | 1014.9 hPa | 0 mm | - | 493 W/m² | - |
| 1777575183 | 15.56° C | 54% | 1015.1 hPa | 0 mm | - | 497 W/m² | - |
| 1777574879 | 16.11° C | 56% | 1014.7 hPa | 0 mm | - | 492 W/m² | - |
| 1777574577 | 16.11° C | 55% | 1014.8 hPa | 0 mm | - | 465 W/m² | - |
| 1777574273 | 16.11° C | 51% | 1014.9 hPa | 0 mm | - | 513 W/m² | - |
| 1777573968 | 16.67° C | 60% | 1015.1 hPa | 0 mm | - | 501 W/m² | - |
| 1777573663 | 16.67° C | 51% | 1015.1 hPa | 0 mm | - | 507 W/m² | - |
| 1777573360 | 16.67° C | 49% | 1014.9 hPa | 0 mm | - | 507 W/m² | - |
| 1777573056 | 16.11° C | 52% | 1015.1 hPa | 0 mm | - | 549 W/m² | - |
| 1777572753 | 16.11° C | 51% | 1014.8 hPa | 0 mm | - | 581 W/m² | - |
| 1777572453 | 16.11° C | 51% | 1015.1 hPa | 0 mm | - | 638 W/m² | - |
| 1777572149 | 16.67° C | 51% | 1014.6 hPa | 0 mm | - | 640 W/m² | - |
| 1777571844 | 17.22° C | 51% | 1014.7 hPa | 0 mm | - | 608 W/m² | - |
| 1777571541 | 16.67° C | 49% | 1014.7 hPa | 0 mm | - | 639 W/m² | - |
| 1777571238 | 16.11° C | 50% | 1014.7 hPa | 0 mm | - | 679 W/m² | - |
| 1777570934 | 16.67° C | 54% | 1014.7 hPa | 0 mm | - | 689 W/m² | - |
| 1777570630 | 16.11° C | 57% | 1014.7 hPa | 0 mm | - | 695 W/m² | - |
| 1777570327 | 17.22° C | 52% | 1014.9 hPa | 0 mm | - | 722 W/m² | - |
| 1777570022 | 16.67° C | 57% | 1014.8 hPa | 0 mm | - | 729 W/m² | - |
* Rain latest hour (hover to see other rain measurements)
** Current wind speed in m/s (hover to see current wind gust speed)